Volver al catálogo

ASTRANIS UTILITYSAT

ActivoComunicacionesHEO
NORAD 62454·PAYLOAD·🇬🇧 United Kingdom

Lanzado Dec 29, 2024 desde Cape Canaveral Space Force Station

Loading…

Próximos Pases (próximas 24 horas)

TLE

ActualizadoSource: Space-Track

Época: Sep 12, 2026, 19:38 UTC

1 62454U 24252A   26255.81871814 -.00000247  00000-0  00000+0 0  9997
2 62454   9.1478 324.4229 7550582 262.7647  14.5492  1.00300779  6305

Sigue ASTRANIS UTILITYSAT en tiempo real con AllMySat

Download on the App Store